Regional Weather Roundup
Issued by NWS

Home | Current Version | Previous Version | Graphics & Text | Print | Product List | Glossary On
Versions: 1 2 3 4 5 6 7 8 9 10 11 12 13 14 15 16 17 18 19 20 21 22 23 24 25 26 27
000
ASUS43 KDMX 230407
RWRIA

WEATHER ROUNDUP FOR IOWA
NATIONAL WEATHER SERVICE DES MOINES IA
1100 PM CDT WED OCT 22 2014

NOTE: "FAIR" INDICATES FEW OR NO CLOUDS BELOW 12,000 FEET WITH NO
SIGNIFICANT WEATHER AND/OR OBSTRUCTIONS TO VISIBILITY.

* - THESE STATIONS ARE NOT NWS STATIONS...THUS NOT UNDER NWS
QUALITY CONTROL.  THEY ALSO DO NOT REPORT WEATHER SUCH
AS PRECIPITATION OR FOG.

IAZ001>003-012>014-020>022-031>034-043>046-230500-
   NORTHWEST IOWA

CITY           SKY/WX    TMP DP  RH WIND       PRES   REMARKS
CARROLL *      LGT RAIN  55  55 100 S8        30.08F
CHEROKEE *     CLOUDY    59  59 100 S7        30.04F
DENISON *      CLOUDY    59  59 100 SE9G16    30.04F
LE MARS *      CLOUDY    59  59 100 S5        30.03F
ORANGE CITY *  CLOUDY    61  57  88 S3        30.03F
SHELDON *      CLOUDY    57  57 100 S10       30.02F
SIOUX CITY     CLOUDY    60  59  96 E3        30.03F
SPENCER        CLOUDY    59  56  89 S12       30.03F
STORM LAKE *   CLOUDY    57  55  94 S14       30.06F
$$

IAZ055>058-069>071-079>083-090>094-230500-
   SOUTHWEST IOWA

CITY           SKY/WX    TMP DP  RH WIND       PRES   REMARKS
ATLANTIC *     LGT RAIN  57  55  94 E3        30.10F
AUDUBON *      RAIN      55  52  88 S3        30.11F
CLARINDA *     CLOUDY    61  50  67 S12       30.08S
COUNCIL BLFS * CLOUDY    61  61 100 SE7G14    30.05R FOG
CRESTON *      CLOUDY    55  48  76 SE12      30.09F
HARLAN  *      LGT RAIN  57  57 100 SE10      30.10F
LAMONI         PTCLDY    56  45  66 SE10      30.12F
RED OAK *      RAIN      59  57  94 W3        30.10R
SHENANDOAH *   LGT RAIN  61  57  88 CALM      30.09S
$$

IAZ047>049-059>061-072>074-084-230500-
   CENTRAL IOWA

CITY           SKY/WX    TMP DP  RH WIND       PRES   REMARKS
AMES           CLOUDY    54  43  66 SE10      30.10F
ANKENY *       MOCLDY    57  45  62 SE12      30.10F
CHARITON *     CLOUDY    55  43  62 SE14      30.12F
DES MOINES     MOCLDY    57  44  62 SE12      30.11F
GRINNELL*      MOCLDY    52  41  66 SE10      30.15F
KNOXVILLE *    PTCLDY    54  43  66 SE9       30.12F
MARSHALLTOWN   CLOUDY    53  41  63 S13       30.12F
PELLA *        MOCLDY    54  43  66 SE12      30.14F
PERRY *        CLOUDY    57  48  72 W5        30.13R
$$

IAZ004>006-015-016-023>025-035-036-230500-
   NORTH CENTRAL IOWA

CITY           SKY/WX    TMP DP  RH WIND       PRES   REMARKS
ALGONA *       CLOUDY    55  50  82 S14G21    30.07F HAZE
CLARION *      CLOUDY    55  45  67 S8        30.12F
ESTHERVILLE    CLOUDY    54  52  93 S18       30.03F
FORT DODGE *   CLOUDY    55  48  76 SE7       30.10F
MASON CITY     CLOUDY    53  43  68 S7        30.14R
FOREST CITY *  CLOUDY    54  45  71 S10       30.10F
IOWA FALLS *   CLOUDY    54  41  62 SE15      30.11F
$$

IAZ007>011-017>019-026>030-037>042-050>054-066-230500-
   NORTHEAST IOWA

CITY           SKY/WX    TMP DP  RH WIND       PRES   REMARKS
CEDAR RAPIDS   MOCLDY    50  40  68 S8        30.18S
CHARLES CITY * PTCLDY    52  39  62 SE9G16    30.12F
CLINTON *      CLEAR     43  36  75 SE8       30.25S
DECORAH *      CLOUDY    50  39  66 S7        30.14F
DUBUQUE        PTCLDY    45  37  73 S13       30.20S
MONTICELLO *   CLEAR     46  39  76 SE8       30.19S
OELWEIN *      MOCLDY    50  39  66 S10       30.17S
WATERLOO       CLOUDY    53  39  59 S14       30.13F
$$

IAZ064-065-067-068-078-230500-
   EAST CENTRAL IOWA

CITY           SKY/WX    TMP DP  RH WIND       PRES   REMARKS
DAVENPORT      CLEAR     44  36  73 SE10      30.22F
IOWA CITY      MOCLDY    45  39  79 S3        30.20F
MT. PLEASANT * PTCLDY    46  39  76 SE7       30.19F
MUSCATINE *    CLEAR     45  37  76 CALM      30.21S
QUAD CITIES    CLEAR     42  35  76 SE6       30.22F
$$

IAZ062-063-075>077-085>089-095>099-230500-
   SOUTHEAST IOWA

CITY           SKY/WX    TMP DP  RH WIND       PRES   REMARKS
BURLINGTON     PTCLDY    49  39  68 SE8       30.20F
FAIRFIELD *    CLEAR     50  39  66 SE8       30.19R
FORT MADISON * CLEAR     52  43  71 SE8       30.20F
KEOKUK *       CLEAR     48  41  76 SE7       30.20S
OSKALOOSA *      N/A     48  41  76 SE7       30.17S
CENTERVILLE *  CLEAR     50  41  71 SE7       30.17S
OTTUMWA        PTCLDY    51  40  65 SE13      30.16F
WASHINGTON *   CLEAR     48  41  76 SE9       30.18F
$$

ABBREVIATIONS USED IN REMARKS
   TC - TEMPERATURES IN CELSIUS
  WCI - WIND CHILL INDEX
   HX - HEAT INDEX
  VSB - VISIBILITY
$$




USA.gov is the U.S. government's official web portal to all federal, state and local government web resources and services.